User: anonymous   Login
Location: Unspecified
(0.0000°N, 0.0000°E)
Time: 10:44:33
(UTC+00:00)
Language:

EUTE 9B - Orbit

View from above orbital plane
View from above orbital plane
View from above satellite
View from above satellite

Ground track
Ground track

The orbit data is extracted from the following two-line orbital elements,

1 41310U 16005A   19196.59275101 +.00000050 +00000-0 +00000-0 0  9992
2 41310 000.0731 081.6481 0001170 183.9083 249.9571 01.00273673012763
Epoch (UTC): 15 July 2019 14:13:33
Eccentricity: 0.0001170
inclination: 0.0731°
perigee height: 35781 km
apogee height: 35790 km
right ascension of ascending node: 81.6481°
argument of perigee: 183.9083°
revolutions per day: 1.00273673
mean anomaly at epoch: 249.9571°
orbit number at epoch: 1276

The dashed part of the orbit path shows where the satellite is in the earth's shadow,  

DLR